TimeMST,TemperatureF,Dew PointF,Humidity,Sea Level PressureIn,VisibilityMPH,Wind Direction,Wind SpeedMPH,Gust SpeedMPH,PrecipitationIn,Events,Conditions,WindDirDegrees,DateUTC
12:53 AM,15.1,1.0,54,30.06,10.0,SSW,6.9,-,N/A,,Clear,200,2013-02-13 07:53:00
1:53 AM,14.0,1.9,59,30.07,10.0,Calm,Calm,-,N/A,,Clear,0,2013-02-13 08:53:00
2:53 AM,16.0,1.0,52,30.06,10.0,SW,5.8,-,N/A,,Clear,220,2013-02-13 09:53:00
3:53 AM,12.9,-0.0,56,30.06,10.0,South,10.4,-,N/A,,Clear,190,2013-02-13 10:53:00
5:53 AM,10.9,3.0,70,30.10,10.0,SW,6.9,-,N/A,,Clear,220,2013-02-13 12:53:00
6:53 AM,10.9,1.9,67,30.12,10.0,West,6.9,-,N/A,,Clear,260,2013-02-13 13:53:00
7:53 AM,19.9,9.0,62,30.09,10.0,SW,10.4,-,N/A,,Clear,230,2013-02-13 14:53:00
8:53 AM,28.9,10.0,45,30.07,10.0,West,10.4,-,N/A,,Clear,260,2013-02-13 15:53:00
9:53 AM,36.0,10.9,36,30.05,10.0,West,11.5,-,N/A,,Clear,260,2013-02-13 16:53:00
10:53 AM,43.0,10.9,27,30.01,10.0,West,9.2,-,N/A,,Clear,260,2013-02-13 17:53:00
11:53 AM,46.9,10.0,22,29.99,10.0,West,8.1,-,N/A,,Clear,270,2013-02-13 18:53:00
12:53 PM,51.1,9.0,18,29.94,10.0,Variable,3.5,-,N/A,,Clear,0,2013-02-13 19:53:00
1:53 PM,53.1,10.0,18,29.92,10.0,Variable,5.8,-,N/A,,Clear,0,2013-02-13 20:53:00
2:53 PM,54.0,10.0,17,29.91,10.0,Calm,Calm,-,N/A,,Clear,0,2013-02-13 21:53:00
3:53 PM,54.0,10.0,17,29.91,10.0,SSW,3.5,-,N/A,,Clear,200,2013-02-13 22:53:00
4:53 PM,52.0,9.0,18,29.92,10.0,Calm,Calm,-,N/A,,Clear,0,2013-02-13 23:53:00
5:53 PM,45.0,9.0,23,29.96,10.0,South,4.6,-,N/A,,Clear,170,2013-02-14 00:53:00
6:53 PM,30.9,5.0,33,30.01,10.0,SSW,5.8,-,N/A,,Clear,200,2013-02-14 01:53:00
7:53 PM,28.0,5.0,38,30.02,10.0,Variable,6.9,-,N/A,,Clear,0,2013-02-14 02:53:00
8:53 PM,28.0,6.1,39,30.01,10.0,WSW,3.5,-,N/A,,Clear,240,2013-02-14 03:53:00
9:53 PM,24.1,3.9,42,30.03,10.0,Calm,Calm,-,N/A,,Clear,0,2013-02-14 04:53:00
10:53 PM,32.0,6.1,34,30.02,10.0,Calm,Calm,-,N/A,,Clear,0,2013-02-14 05:53:00
11:53 PM,25.0,6.1,45,30.04,10.0,Calm,Calm,-,N/A,,Clear,0,2013-02-14 06:53:00